YAOGAN-41

Last updated on Sun Nov 16 2025 00:03:45 GMT+0000 (Coordinated Universal Time)

1 58582U 23197A 25319.54786240 -.00000360 00000+0 00000+0 0 9994 2 58582 3.5348 310.3368 0011306 202.4959 222.5031 1.00273956 7183
UTC large
Height (km)
Speed (km/s)
/
Latitude / Longitude
Inclination (degrees)
Orbital Period (minutes)
Azimuth
Elevation
Range (km)
Doppler Factor

Next 0 passes for location: London (51.5072 / 0.1276)

Sorry there are no passes over London.